Location: Glens Falls
(43.3090°N, 73.6440°W)
Time: 08:04:57
(UTC-04:00)

CENTAUR R/B - Pass Details

Date: 24 February 2018
Orbit: 804 x 1384 km, 63.5° (Epoch: 16 June)

Event Time Altitude Azimuth Distance (km) Brightness Sun altitude
Rises 18:51:39 0° 228° (SW) 3,455 6.2 -14.3°
Reaches altitude 10° 18:54:02 10° 232° (SW) 2,578 5.5 -14.7°
Maximum altitude 18:59:58 59° 312° (NW) 1,132 3.1 -15.8°
Drops below altitude 10° 19:06:51 10° 32° (NNE) 2,977 4.8 -17.0°
Sets 19:09:48 0° 36° (NE) 4,031 5.4 -17.6°
